sat.trackr.live / text

‹ back to catalog

STARLINK-35666

NORAD 66222 · 2025-244S

PAYLOAD ACTIVE UNKNOWN

§ Identity

Operator
Country
US
Launch date
2025-10-28
Launch site
AFWTR
Launch vehicle
Mass (kg)
RCS (m²)

Purposes: comms

External: N2YO · Heavens-Above · Gunter

§ Orbital elements

Epoch: 2026-09-20T15:53:10.129920Z

Period
93.85 min
Inclination
53.1581°
Eccentricity
0.0001658
Mean motion
15.34410954 rev/d
Perigee alt
461.5 km
Apogee alt
463.8 km
Semi-major
6,840.8 km
B*
8.5290e-4
RAAN
42.6543°
Arg perigee
88.8297°
Mean anomaly
271.2896°
Rev number
5,153

§ Raw data

STARLINK-356661 66222U 25244S   26263.66192280  .00028560  00000+0  85290-3 0  99952 66222  53.1581  42.6543 0001658  88.8297 271.2896 15.34410954 51534

JSON: /api/v1/satellites/66222 · /tle

For live sub-satellite position, see the globe view (requires WebGL).

§ Visibility from observer

Set your observer location to see the next 7 days of passes ≥ 10°. The values pass through the URL so the page stays shareable.

No JS? Fill the form by hand. The geolocation button needs JavaScript.